{"data":{"norad_id":35496,"intl_designator":"2009-035A","name":"TERRESTAR-1","alt_names":[],"object_type":"PAYLOAD","status":"ACTIVE","operator":null,"country":"US","launch_date":"2009-07-01","launch_site_code":"FRGUI","launch_vehicle":null,"mission":null,"orbit_class":"UNKNOWN","rcs_meters":17.2973,"size_class":null,"mass_kg":null,"dimensions":null,"purposes":["comms"],"wikipedia_slug":null,"has_3d_model":false,"image_url":null,"decayed_at":null,"tle_current":{"epoch":"2026-09-19T21:34:32.328192Z","epoch_age_seconds":73932,"freshness":"FRESH","line1":"1 35496U 09035A   26262.89898528 -.00000059  00000+0  00000+0 0  9992","line2":"2 35496   5.2295  48.6570 0002285 110.9416  51.8616  1.00273820 63088","mean_motion":1.0027382,"eccentricity":0.0002285,"inclination_deg":5.2295,"raan_deg":48.657,"arg_perigee_deg":110.9416,"mean_anomaly_deg":51.8616,"bstar":0,"rev_number":6308,"period_min":1436.0677592616,"perigee_km":35776.389975566,"apogee_km":35795.658997366,"semimajor_km":42164.161486466,"source":"CELESTRAK","updated_at":"2026-09-20T09:00:35.158489Z"}}}